Flag for Denmark Weather past 2 weeks in Roskilde, Denmark

Now
37 °F

Passing clouds.


Feels Like: 37 °F
Forecast: 49 / 56 °F
Wind: 2 mph from West

Location: Koebenhavn / Roskilde

Current Time: Sep 23, 2014 at 7:16:49 AM

Latest Report: Sep 23, 2014 at 6:50 AM


Visibility: N/A

Pressure: 30.04 "Hg

Humidity: 93%

Dew point: 36 °F

Location of RoskildeLocation

Historic Weather in Roskilde — Graph

°F

Roskilde temperature yesterday

Maximum temperature yesterday: 52 °F (at 12:20 AM)
Minimum temperature yesterday: 43 °F (at 11:20 PM)
Average temperature yesterday: 50 °F

Past Weeks' High & Low Weather Summary

 TemperatureHumidityPressure
High70 °F (Sep 19, 2:50 PM)100% (Sep 8, 6:20 AM)30.30 "Hg (Sep 8, 6:20 AM)
Low37 °F (Sep 23, 5:20 AM)56% (Sep 8, 1:50 PM)29.68 "Hg (Sep 22, 6:20 AM)
Average58 °F87%30.07 "Hg
* Reported Sep 8 6:20 AM — Sep 23 6:20 AM, Roskilde, Weather by CustomWeather, © 2014

Note: Actual official high and low records may vary slightly from our data, if they occured in-between our weather recording intervals... More about our weather records

Advertising

Roskilde weather history for previous 24 hours

 ConditionsComfort  
Time TempWeatherWind HumidityBarometerVisibility
6:20 AM
Sep 23
37 °FPassing clouds.1 mph87%30.04 "HgN/A
5:50 AM37 °FPassing clouds.2 mph93%30.04 "HgN/A
5:20 AM37 °FPassing clouds.1 mph93%30.04 "HgN/A
4:50 AM39 °FPassing clouds.2 mph87%30.04 "HgN/A
4:20 AM39 °FPassing clouds.3 mph87%30.04 "HgN/A
3:50 AM39 °FPassing clouds.2 mph87%30.04 "HgN/A
3:20 AM41 °FPassing clouds.2 mph87%30.04 "HgN/A
2:50 AM41 °FPassing clouds.3 mph81%30.04 "HgN/A
2:20 AM43 °FPassing clouds.6 mph76%30.04 "HgN/A
1:50 AM43 °FPassing clouds.6 mph81%30.01 "HgN/A
1:20 AM43 °FPassing clouds.6 mph81%30.01 "HgN/A
12:50 AM43 °FQuite cool.7 mph81%30.01 "HgN/A
12:20 AM43 °FQuite cool.6 mph76%30.01 "HgN/A
11:50 PM
Sep 22
43 °FQuite cool.5 mph76%30.01 "HgN/A
11:20 PM43 °FQuite cool.7 mph81%30.01 "HgN/A
10:50 PM45 °FQuite cool.7 mph76%30.01 "HgN/A
10:20 PM46 °FCool.8 mph71%29.98 "HgN/A
9:50 PM48 °FPassing clouds.8 mph71%29.98 "HgN/A
9:20 PM50 °FPassing clouds.10 mph67%29.98 "HgN/A
8:50 PM50 °FPassing clouds.12 mph71%29.98 "HgN/A
8:20 PM50 °FPassing clouds.14 mph71%29.95 "HgN/A
7:50 PM50 °FOvercast.15 mph71%29.95 "HgN/A
7:20 PM50 °FPartly sunny.21 mph76%29.92 "HgN/A
6:50 PM50 °FMore clouds than sun.17 mph76%29.92 "HgN/A
6:20 PM50 °FPartly sunny.21 mph76%29.89 "HgN/A
5:50 PM50 °FBroken clouds.20 mph82%29.89 "HgN/A
5:20 PM52 °FPartly sunny.21 mph77%29.86 "HgN/A
4:50 PM52 °FBroken clouds.20 mph77%29.86 "HgN/A
4:20 PM52 °FPartly sunny.21 mph77%29.83 "HgN/A
3:50 PM52 °FMostly cloudy.18 mph82%29.83 "HgN/A
3:20 PM52 °FPartly sunny.20 mph82%29.83 "HgN/A
2:50 PM52 °FSprinkles. Broken clouds.21 mph82%29.80 "HgN/A
2:20 PM52 °FBroken clouds.18 mph77%29.80 "HgN/A
1:50 PM52 °FBroken clouds.22 mph77%29.80 "HgN/A
1:20 PM52 °FSprinkles. Broken clouds.22 mph82%29.77 "HgN/A
12:50 PM50 °FSprinkles. Partly sunny.22 mph88%29.77 "HgN/A
12:20 PM52 °FSprinkles. Partly sunny.22 mph82%29.77 "HgN/A
11:50 AM50 °FSprinkles. Partly sunny.17 mph88%29.77 "HgN/A
11:20 AM50 °FSprinkles. Broken clouds.17 mph94%29.77 "HgN/A
10:50 AM52 °FBroken clouds.20 mph77%29.74 "HgN/A
10:20 AM50 °FSprinkles. Broken clouds.15 mph88%29.74 "HgN/A
9:50 AM52 °FMostly cloudy.21 mph77%29.74 "HgN/A
9:20 AM52 °FPartly sunny.20 mph77%29.74 "HgN/A
8:50 AM52 °FMostly cloudy.15 mph72%29.74 "HgN/A
8:20 AM52 °FBroken clouds.16 mph72%29.71 "HgN/A
7:50 AM52 °FPassing clouds.18 mph72%29.71 "HgN/A
7:20 AM52 °FPassing clouds.17 mph72%29.71 "HgN/A
Weather by CustomWeather, © 2014

See weather overviewHow to use our weather pages